Regional Weather Roundup
Issued by NWS Cleveland, OH

Home | Current Version | Previous Version | Text Only | Print | Product List | Glossary Off
Versions: 1 2 3 4 5 6 7 8 9 10 11 12 13 14 15 16 17 18 19 20 21 22 23 24 25 26 27 28 29 30 31 32 33 34 35 36 37 38 39 40 41 42 43 44 45 46 47 48 49 50

000
ASUS41 KCLE 111600
RWRCLE
OHIO REGIONAL WEATHER ROUNDUP
NATIONAL WEATHER SERVICE WILMINGTON, OH
1100 AM EST THU FEB 11 2016

NOTE: "FAIR" INDICATES FEW OR NO CLOUDS BELOW 12,000 FEET WITH NO
SIGNIFICANT WEATHER AND/OR OBSTRUCTIONS TO VISIBILITY.

OHZ001>008-015>018-024>027-034-035-043-044-111700-
   NORTHWEST OHIO

CITY           SKY/WX    TMP DP  RH WIND       PRES   REMARKS
DEFIANCE       CLOUDY    20   7  57 NW10      30.26R WCI   9
FINDLAY        CLOUDY    18   4  54 W10       30.23R WCI   6
TOLEDO EXPRESS PTSUNNY   18   3  52 NW15      30.23R WCI   4
TOLEDO EXEC    FAIR      18   2  49 NW13G21   30.24R WCI   5
LIMA           PTSUNNY   17   8  67 NW10      30.23R WCI   5
$$

OHZ009>014-019>023-028>033-038-089-111700-
   NORTHEAST OHIO

CITY           SKY/WX    TMP DP  RH WIND       PRES   REMARKS
CLE-HOPKINS    PTSUNNY   17   1  49 NW14G22   30.20R WCI   3
CLE-LAKEFRONT  CLOUDY    19   8  62 W23G30    30.17R WCI   2
CUY CO. ARPT   CLOUDY    18   5  57 NW17G25   30.16R WCI   2
LORAIN-ELYRIA  LGT SNOW  15   9  76 W13       30.20R VSB 1   WCI   1
ASHTABULA      CLOUDY    15   3  59 NW20G28   30.12R WCI  -2
AKRON-CANTON   LGT SNOW  13   7  77 W17       30.15R VSB 1   WCI  -4
WOOSTER        NOT AVBL
MANSFIELD      CLOUDY    13   5  70 W12G18    30.18R WCI  -1
YOUNGSTOWN     LGT SNOW  14   7  73 W17G23    30.11R VSB 1   WCI  -3
$$

OHZ042-051>053-060>062-070>072-077>081-111700-
  SOUTHWEST OHIO

CITY           SKY/WX    TMP DP  RH WIND       PRES   REMARKS
CINC-COVINGTON FAIR      19   6  57 CALM      30.28R
CINC-LUNKEN    FAIR      19   8  62 SE3       30.32S
HAMILTON       FAIR      20   6  55 W5        30.31S WCI  13
DAYTON         NOT AVBL
WRIGHT-PAT AFB PTSUNNY   19   7  61 NW9       30.26S WCI   7
DAYTON GENERAL FAIR      18   4  54 W7        30.26R WCI   9
WILMINGTON     FAIR      17   7  64 NW6       30.25R WCI   9
$$

OHZ036-037-039>041-045>050-054>059-063>069-073>076-082>088-111700-
  CENTRAL AND SOUTHEAST OHIO

CITY           SKY/WX    TMP DP  RH WIND       PRES   REMARKS
COLUMBUS       PTSUNNY   16   5  62 W3        30.25R
OSU AIRPORT    CLOUDY    17  10  74 W7        30.24R WCI   8
BOLTON FIELD   PTSUNNY   18   9  68 W5        30.25R WCI  11
RICKENBACK AFB NOT AVBL
NEWARK         PTSUNNY   18   5  57 MISG      30.23S
MARION         SNOW      16   9  74 NW9       30.22R VSB 1/2 WCI   4
LANCASTER      CLOUDY    15   7  70 SW6       30.26R WCI   6
ZANESVILLE     PTSUNNY   18   4  54 W8        30.23R WCI   8
NEW PHILLY     PTSUNNY   16   4  59 W13G18    30.21R WCI   2
$$



USA.gov is the U.S. government's official web portal to all federal, state and local government web resources and services.